When you browse on this site, cookies collect data to enhance your experience and personalize the content and advertising you see.
Visit our Privacy Policy to learn more. By continuing to use the site, you agree to this use of cookies and data.
  • In Switzerland
  • List of Countries
  • For 7 days
  • Water Temperature
  • Weather Map
  • Weather Widgets
  • user-avatar
    Login

    Hourly Weather Suhl

    Today, 28 May, Thursday

    Time Temperature Precipitation Wind Pressure Humidity
    00:00 +11°C° 0.2 mm 1 mps 725 mmHg 88%
    01:00 +12°C° 0 mm 2 mps 725 mmHg 91%
    02:00 +10°C° 1.3 mm 2 mps 725 mmHg 93%
    03:00 +10°C° 1.3 mm 3 mps 725 mmHg 95%
    04:00 +8°C° 1.3 mm 4 mps 725 mmHg 97%
    05:00 +8°C° 0 mm 4 mps 725 mmHg 94%
    06:00 +8°C° 0 mm 4 mps 726 mmHg 91%
    07:00 +7°C° 0 mm 4 mps 726 mmHg 89%
    08:00 +10°C° 0 mm 4 mps 726 mmHg 79%
    09:00 +11°C° 0 mm 4 mps 726 mmHg 69%
    10:00 +12°C° 0 mm 4 mps 726 mmHg 60%
    11:00 +13°C° 0 mm 4 mps 726 mmHg 56%
    12:00 +14°C° 0 mm 4 mps 726 mmHg 52%
    13:00 +14°C° 0 mm 4 mps 726 mmHg 49%
    14:00 +15°C° 0 mm 4 mps 726 mmHg 49%
    15:00 +15°C° 0 mm 4 mps 725 mmHg 50%
    16:00 +15°C° 0 mm 4 mps 725 mmHg 50%
    17:00 +14°C° 0 mm 4 mps 725 mmHg 58%
    18:00 +13°C° 0 mm 3 mps 725 mmHg 65%
    19:00 +12°C° 0 mm 3 mps 725 mmHg 72%
    20:00 +10°C° 0 mm 3 mps 725 mmHg 78%
    21:00 +9°C° 0 mm 2 mps 725 mmHg 85%
    22:00 +7°C° 0 mm 2 mps 725 mmHg 91%
    23:00 +7°C° 0 mm 2 mps 725 mmHg 93%

    Tomorrow, 29 May, Friday

    Time Temperature Precipitation Wind Pressure Humidity
    00:00 +7°C° 0 mm 2 mps 725 mmHg 94%
    01:00 +6°C° 0 mm 2 mps 725 mmHg 96%
    02:00 +6°C° 0 mm 2 mps 725 mmHg 96%
    03:00 +6°C° 0 mm 2 mps 725 mmHg 97%
    04:00 +7°C° 0 mm 1 mps 724 mmHg 98%
    05:00 +7°C° 0 mm 2 mps 725 mmHg 94%
    06:00 +7°C° 0 mm 2 mps 725 mmHg 90%
    07:00 +8°C° 0 mm 2 mps 725 mmHg 87%
    08:00 +9°C° 0 mm 3 mps 725 mmHg 81%
    09:00 +11°C° 0 mm 3 mps 725 mmHg 75%
    10:00 +12°C° 0 mm 4 mps 725 mmHg 69%
    11:00 +13°C° 0 mm 4 mps 725 mmHg 62%
    12:00 +14°C° 0 mm 4 mps 724 mmHg 55%
    13:00 +15°C° 0 mm 4 mps 724 mmHg 47%
    14:00 +15°C° 0 mm 5 mps 724 mmHg 49%
    15:00 +15°C° 0 mm 5 mps 723 mmHg 50%
    16:00 +15°C° 0 mm 5 mps 723 mmHg 52%
    17:00 +14°C° 0 mm 4 mps 723 mmHg 57%
    18:00 +13°C° 0 mm 4 mps 722 mmHg 63%
    19:00 +12°C° 0 mm 4 mps 722 mmHg 68%
    20:00 +10°C° 0 mm 3 mps 722 mmHg 75%
    21:00 +9°C° 0 mm 2 mps 722 mmHg 81%
    22:00 +7°C° 0 mm 2 mps 722 mmHg 88%
    23:00 +7°C° 0 mm 2 mps 722 mmHg 89%

    Day after tomorrow, 30 May, Saturday

    Time Temperature Precipitation Wind Pressure Humidity
    00:00 +6°C° 0 mm 2 mps 722 mmHg 89%
    01:00 +7°C° 0 mm 1 mps 722 mmHg 90%
    02:00 +6°C° 0 mm 1 mps 722 mmHg 90%
    03:00 +6°C° 0 mm 1 mps 722 mmHg 90%
    04:00 +5°C° 0 mm 1 mps 722 mmHg 90%
    05:00 +6°C° 0 mm 2 mps 722 mmHg 83%
    06:00 +7°C° 0 mm 2 mps 722 mmHg 76%
    07:00 +9°C° 0 mm 3 mps 722 mmHg 69%
    08:00 +10°C° 0 mm 4 mps 722 mmHg 64%
    09:00 +11°C° 0 mm 4 mps 722 mmHg 59%
    10:00 +12°C° 0 mm 5 mps 722 mmHg 54%
    11:00 +12°C° 0 mm 5 mps 722 mmHg 56%
    12:00 +12°C° 0 mm 5 mps 722 mmHg 58%
    13:00 +12°C° 0 mm 5 mps 722 mmHg 60%
    14:00 +12°C° 0.1 mm 4 mps 721 mmHg 63%
    15:00 +12°C° 0.1 mm 4 mps 721 mmHg 66%
    16:00 +12°C° 0.1 mm 4 mps 721 mmHg 69%
    17:00 +12°C° 0.1 mm 3 mps 720 mmHg 72%
    18:00 +11°C° 0.1 mm 3 mps 720 mmHg 76%
    19:00 +12°C° 0.1 mm 2 mps 720 mmHg 79%
    20:00 +9°C° 0 mm 2 mps 720 mmHg 84%
    21:00 +8°C° 0 mm 2 mps 720 mmHg 90%
    22:00 +8°C° 0 mm 1 mps 720 mmHg 95%
    23:00 +7°C° 0 mm 1 mps 720 mmHg 96%

    31 May, Sunday

    Time Temperature Precipitation Wind Pressure Humidity
    00:00 +7°C° 0 mm 1 mps 720 mmHg 96%
    01:00 +6°C° 0 mm 1 mps 720 mmHg 96%
    02:00 +6°C° 0 mm 1 mps 720 mmHg 96%
    03:00 +6°C° 0 mm 1 mps 719 mmHg 96%
    04:00 +5°C° 0 mm 1 mps 719 mmHg 96%
    05:00 +6°C° 0 mm 2 mps 720 mmHg 92%
    06:00 +7°C° 0 mm 2 mps 720 mmHg 89%
    07:00 +8°C° 0 mm 2 mps 720 mmHg 85%
    08:00 +9°C° 0 mm 2 mps 720 mmHg 78%
    09:00 +11°C° 0 mm 3 mps 720 mmHg 72%
    10:00 +12°C° 0 mm 3 mps 720 mmHg 66%
    11:00 +12°C° 0 mm 3 mps 720 mmHg 71%
    12:00 +11°C° 0 mm 3 mps 720 mmHg 76%
    13:00 +11°C° 0 mm 3 mps 720 mmHg 81%
    14:00 +12°C° 0.1 mm 2 mps 720 mmHg 83%
    15:00 +12°C° 0.1 mm 2 mps 720 mmHg 84%
    16:00 +12°C° 0.1 mm 1 mps 719 mmHg 86%
    17:00 +11°C° 0.1 mm 1 mps 719 mmHg 89%
    18:00 +11°C° 0.1 mm 1 mps 719 mmHg 91%
    19:00 +11°C° 0.1 mm 1 mps 719 mmHg 94%
    20:00 +11°C° 0 mm 1 mps 719 mmHg 94%
    21:00 +10°C° 0 mm 1 mps 719 mmHg 95%
    22:00 +10°C° 0 mm 1 mps 719 mmHg 95%
    23:00 +10°C° 0 mm 1 mps 719 mmHg 95%

    1 June, Monday

    Time Temperature Precipitation Wind Pressure Humidity
    00:00 +10°C° 0 mm 1 mps 719 mmHg 95%
    01:00 +9°C° 0 mm 2 mps 719 mmHg 95%
    02:00 +10°C° 0 mm 1 mps 719 mmHg 96%
    03:00 +9°C° 0 mm 1 mps 719 mmHg 96%
    04:00 +9°C° 0 mm 1 mps 719 mmHg 97%
    05:00 +9°C° 0 mm 2 mps 719 mmHg 96%
    06:00 +10°C° 0 mm 2 mps 719 mmHg 94%
    07:00 +12°C° 0 mm 2 mps 719 mmHg 93%
    08:00 +14°C° 0 mm 2 mps 719 mmHg 87%
    09:00 +14°C° 0 mm 3 mps 720 mmHg 81%
    10:00 +17°C° 0 mm 3 mps 720 mmHg 75%
    11:00 +17°C° 0.1 mm 4 mps 720 mmHg 74%
    12:00 +18°C° 0.1 mm 4 mps 720 mmHg 72%
    13:00 +17°C° 0.1 mm 5 mps 719 mmHg 71%
    14:00 +19°C° 0 mm 5 mps 719 mmHg 67%
    15:00 +20°C° 0 mm 5 mps 719 mmHg 63%
    16:00 +20°C° 0 mm 5 mps 719 mmHg 59%
    17:00 +19°C° 0 mm 5 mps 719 mmHg 64%
    18:00 +18°C° 0 mm 4 mps 718 mmHg 68%
    19:00 +17°C° 0 mm 4 mps 718 mmHg 73%
    20:00 +15°C° 0 mm 4 mps 718 mmHg 76%
    21:00 +13°C° 0 mm 3 mps 718 mmHg 79%
    22:00 +12°C° 0 mm 3 mps 718 mmHg 83%
    23:00 +12°C° 0 mm 2 mps 718 mmHg 85%

    2 June, Tuesday

    Time Temperature Precipitation Wind Pressure Humidity
    00:00 +10°C° 0 mm 2 mps 718 mmHg 87%
    01:00 +9°C° 0 mm 2 mps 718 mmHg 90%
    02:00 +10°C° 0 mm 1 mps 718 mmHg 91%
    03:00 +9°C° 0 mm 1 mps 718 mmHg 92%
    04:00 +9°C° 0 mm 1 mps 717 mmHg 93%
    05:00 +9°C° 0 mm 2 mps 718 mmHg 86%
    06:00 +12°C° 0 mm 2 mps 718 mmHg 79%
    07:00 +13°C° 0 mm 3 mps 718 mmHg 73%
    08:00 +14°C° 0 mm 3 mps 718 mmHg 67%
    09:00 +17°C° 0 mm 4 mps 718 mmHg 62%
    10:00 +19°C° 0 mm 5 mps 718 mmHg 56%
    11:00 +19°C° 0 mm 5 mps 718 mmHg 55%
    12:00 +20°C° 0 mm 5 mps 718 mmHg 54%
    13:00 +21°C° 0 mm 5 mps 718 mmHg 53%
    14:00 +20°C° 0 mm 5 mps 718 mmHg 54%
    15:00 +20°C° 0 mm 5 mps 717 mmHg 55%
    16:00 +20°C° 0 mm 5 mps 717 mmHg 56%
    17:00 +19°C° 0 mm 4 mps 717 mmHg 60%
    18:00 +18°C° 0 mm 4 mps 716 mmHg 65%
    19:00 +17°C° 0 mm 4 mps 716 mmHg 70%
    20:00 +16°C° 0 mm 3 mps 716 mmHg 76%
    21:00 +13°C° 0 mm 3 mps 716 mmHg 82%
    22:00 +13°C° 0 mm 2 mps 716 mmHg 87%
    23:00 +12°C° 0 mm 2 mps 716 mmHg 89%
    Show more